GW4853 Weather Reports


time (UTC)temp
C
wind
direction
speed
KPH
gust
KPH
rain 1hr
cm
rain 24hr
cm
rain mn
cm
humidity
%
barometer
mb
20260502170237 13 304 4.8 6.4 0.00 0.00 0.00 43 1016.1
20260502164225 11 343 19.3 24.1 0.00 0.00 0.00 46 1016.3
20260502163720 12 225 3.2 11.3 0.00 0.00 0.00 50 1016.4
20260502163217 12 318 6.4 12.9 0.00 0.00 0.00 48 1016.6
20260502162713 12 312 6.4 16.1 0.00 0.00 0.00 48 1016.5
20260502162205 12 302 8.0 14.5 0.00 0.00 0.00 47 1016.8
20260502161702 13 323 8.0 11.3 0.00 0.00 0.00 47 1016.7
20260502161158 12 353 11.3 14.5 0.00 0.00 0.00 46 1016.8
20260502160657 12 355 11.3 17.7 0.00 0.00 0.00 47 1017.1
20260502160155 12 355 11.3 17.7 0.00 0.00 0.00 47 1017.1
20260502152212 11 192 4.8 12.9 0.00 0.00 0.00 51 1017.4
20260502151710 11 192 4.8 12.9 0.00 0.00 0.00 51 1017.4
20260502151207 11 326 3.2 6.4 0.00 0.00 0.00 53 1017.5
20260502150704 11 318 3.2 9.7 0.00 0.00 0.00 51 1017.6
20260502150200 11 311 4.8 6.4 0.00 0.00 0.00 50 1017.5
20260502140124 8 4 4.8 4.8 0.00 0.00 0.00 66 1017.9
20260502130549 6 7 3.2 3.2 0.00 0.00 0.00 99 1016.6
20260502123532 5 347 1.6 1.6 0.00 0.00 0.00 99 1016.3
20260502123028 5 344 0.0 1.6 0.00 0.00 0.00 99 1016.3
20260502122525 5 348 0.0 1.6 0.00 0.00 0.00 99 1016.4
20260502122023 5 348 0.0 0.0 0.00 0.00 0.00 99 1016.2
20260502121520 3 348 0.0 0.0 0.00 0.00 0.00 99 1016.3
20260502121017 3 348 0.0 0.0 0.00 0.00 0.00 99 1016.2
20260502120513 3 348 0.0 0.0 0.00 0.00 0.00 99 1016.2
20260502115508 3 348 0.0 0.0 0.00 0.00 0.00 99 1016.0
20260502115004 3 347 0.0 0.0 0.00 0.00 0.00 99 1016.0
20260502114501 3 347 0.0 1.6 0.00 0.00 0.00 99 1016.0
20260502113958 3 356 0.0 0.0 0.00 0.00 0.00 99 1016.1
20260502113455 3 356 0.0 1.6 0.00 0.00 0.00 99 1016.1
20260502112954 3 331 0.0 3.2 0.00 0.00 0.00 99 1016.1
20260502112451 2 329 0.0 1.6 0.00 0.00 0.00 99 1016.1
20260502111948 2 329 1.6 1.6 0.00 0.00 0.00 99 1016.1
20260502111445 2 335 1.6 3.2 0.00 0.00 0.00 99 1016.2
20260502110943 2 346 1.6 1.6 0.00 0.00 0.00 99 1016.1
20260502110440 2 330 3.2 3.2 0.00 0.00 0.00 99 1016.1
20260502105937 3 14 0.0 1.6 0.00 0.00 0.00 99 1015.9
20260502105435 3 12 0.0 1.6 0.00 0.00 0.00 99 1015.7
20260502104933 2 18 0.0 0.0 0.00 0.00 0.00 99 1015.8
20260502104429 2 19 1.6 1.6 0.00 0.00 0.00 99 1016.0
20260502103927 2 18 1.6 1.6 0.00 0.00 0.00 99 1015.9
20260502103425 3 17 1.6 1.6 0.00 0.00 0.00 99 1016.2
20260502102921 3 16 0.0 0.0 0.00 0.00 0.00 99 1016.3
20260502102418 3 16 0.0 0.0 0.00 0.00 0.00 99 1016.2
20260502101915 3 16 0.0 0.0 0.00 0.00 0.00 99 1016.2
20260502101414 3 16 0.0 0.0 0.00 0.00 0.00 99 1016.2
20260502100911 2 16 0.0 0.0 0.00 0.00 0.00 99 1016.3
20260502100410 2 16 0.0 0.0 0.00 0.00 0.00 99 1016.1
20260502091343 3 77 0.0 1.6 0.00 0.00 0.00 99 1016.3
20260502090841 3 78 0.0 1.6 0.00 0.00 0.00 99 1016.1
20260502090338 3 77 0.0 0.0 0.00 0.00 0.00 99 1016.3
20260502071233 3 86 0.0 1.6 0.00 0.00 0.00 99 1015.8
20260502070731 3 88 0.0 1.6 0.00 0.00 0.00 99 1015.8
20260502070228 2 93 0.0 0.0 0.00 0.00 0.00 99 1015.9
20260502065726 2 92 1.6 1.6 0.00 0.00 0.00 99 1015.9
20260502065224 2 93 1.6 1.6 0.00 0.00 0.00 99 1016.1
20260502064723 2 94 1.6 3.2 0.00 0.00 0.00 99 1015.9
20260502064220 2 98 1.6 3.2 0.00 0.00 0.00 99 1016.0
20260502063717 2 97 1.6 1.6 0.00 0.00 0.00 99 1016.2
20260502063215 2 98 1.6 1.6 0.00 0.00 0.00 99 1016.0
20260502062712 2 97 0.0 1.6 0.00 0.00 0.00 99 1016.2
20260502062209 2 97 0.0 1.6 0.00 0.00 0.00 99 1016.2
20260502061708 2 97 0.0 0.0 0.00 0.00 0.00 99 1016.2
20260502061205 2 96 1.6 1.6 0.00 0.00 0.00 99 1016.4
20260502060700 2 98 0.0 0.0 0.00 0.00 0.00 99 1016.5
20260502060157 2 98 0.0 0.0 0.00 0.00 0.00 98 1016.4
20260502055654 2 98 1.6 1.6 0.00 0.00 0.00 98 1016.5
20260502055152 3 358 1.6 1.6 0.00 0.00 0.00 98 1016.5
20260502054651 2 56 1.6 1.6 0.00 0.00 0.00 98 1016.7
20260502054148 2 63 0.0 0.0 0.00 0.00 0.00 98 1016.5
20260502053645 2 63 0.0 0.0 0.00 0.00 0.00 98 1016.7
20260502053142 2 63 0.0 0.0 0.00 0.00 0.00 98 1016.4
20260502052640 2 63 0.0 0.0 0.00 0.00 0.00 98 1016.5
20260502052138 2 63 0.0 0.0 0.00 0.00 0.00 98 1016.4
20260502051636 2 63 0.0 0.0 0.00 0.00 0.00 98 1016.4
20260502051134 2 63 0.0 0.0 0.00 0.00 0.00 98 1016.5
20260502050630 2 63 0.0 0.0 0.00 0.00 0.00 98 1016.6
20260502050127 2 63 0.0 0.0 0.00 0.00 0.00 98 1016.5
20260502045623 2 63 0.0 0.0 0.00 0.00 0.00 97 1016.5
20260502045121 2 63 0.0 0.0 0.00 0.00 0.00 97 1016.5
20260502044617 2 63 0.0 0.0 0.00 0.00 0.00 97 1016.6
20260502044114 3 63 0.0 0.0 0.00 0.00 0.00 97 1016.5
20260502043612 3 63 0.0 0.0 0.00 0.00 0.00 97 1016.5
20260502043103 3 63 0.0 0.0 0.00 0.00 0.00 97 1016.5
20260502042602 3 63 0.0 0.0 0.00 0.00 0.00 97 1016.5
20260502042100 3 63 0.0 1.6 0.00 0.00 0.00 97 1016.5
20260502041558 3 63 0.0 0.0 0.00 0.00 0.00 96 1016.5
20260502041054 3 63 0.0 0.0 0.00 0.00 0.00 96 1016.5
20260502040551 3 63 0.0 0.0 0.00 0.00 0.00 96 1016.4
20260502040048 3 63 0.0 0.0 0.00 0.05 0.05 96 1016.5
20260502035544 3 63 0.0 0.0 0.00 0.05 0.05 96 1016.4
20260502035042 3 63 0.0 0.0 0.00 0.05 0.05 95 1016.5
20260502034540 3 63 0.0 1.6 0.00 0.05 0.05 95 1016.5
20260502034038 3 63 0.0 1.6 0.00 0.05 0.05 95 1016.4
20260502033536 3 63 0.0 0.0 0.00 0.05 0.05 94 1016.6
20260502033033 3 63 0.0 1.6 0.00 0.05 0.05 93 1016.5
20260502032528 4 63 0.0 0.0 0.00 0.05 0.05 93 1016.5
20260502032026 4 63 0.0 1.6 0.00 0.05 0.05 93 1016.6
20260502031523 4 63 0.0 0.0 0.00 0.05 0.05 93 1016.5
20260502031021 4 63 0.0 0.0 0.00 0.05 0.05 92 1016.5
20260502030520 4 64 0.0 0.0 0.00 0.05 0.05 92 1016.4
20260502030017 5 64 0.0 1.6 0.00 0.05 0.05 92 1016.5
20260502025514 5 63 1.6 1.6 0.00 0.05 0.05 91 1016.4
20260502025012 5 62 0.0 1.6 0.00 0.05 0.05 90 1016.6
20260502024509 5 62 0.0 0.0 0.00 0.05 0.05 89 1016.4
20260502024008 5 62 0.0 0.0 0.00 0.05 0.05 88 1016.3
20260502023505 5 62 0.0 0.0 0.00 0.05 0.05 88 1016.2
20260502023002 5 62 0.0 1.6 0.00 0.05 0.05 87 1016.1
20260502022459 5 62 0.0 0.0 0.00 0.05 0.05 87 1016.0
20260502021956 5 62 0.0 1.6 0.00 0.05 0.05 87 1016.0
20260502021453 6 62 0.0 0.0 0.00 0.05 0.05 85 1015.9
20260502020950 6 62 1.6 1.6 0.00 0.05 0.05 85 1015.8
20260502020448 6 62 0.0 1.6 0.00 0.05 0.05 84 1015.8
20260502015944 6 62 1.6 1.6 0.00 0.05 0.05 83 1015.7
20260502015442 6 62 1.6 1.6 0.00 0.05 0.05 83 1015.6
20260502014939 6 62 0.0 1.6 0.00 0.05 0.05 81 1015.5
20260502014436 7 63 0.0 1.6 0.00 0.05 0.05 80 1015.6
20260502013932 7 62 1.6 3.2 0.00 0.05 0.05 79 1015.5
20260502013427 7 61 1.6 3.2 0.00 0.05 0.05 78 1015.4
20260502012924 7 62 1.6 3.2 0.00 0.05 0.05 77 1015.4
20260502012422 7 63 1.6 1.6 0.00 0.05 0.05 77 1015.3
20260502011919 7 62 1.6 3.2 0.00 0.05 0.05 75 1015.1
20260502011415 7 56 0.0 3.2 0.00 0.05 0.05 75 1015.0
20260502010913 7 59 1.6 3.2 0.00 0.05 0.05 75 1015.1
20260502010409 8 58 1.6 3.2 0.00 0.05 0.05 73 1015.0
20260502005906 8 34 0.0 3.2 0.00 0.05 0.05 72 1014.7
20260502005404 8 50 1.6 1.6 0.00 0.05 0.05 70 1014.9
20260502004901 8 318 1.6 4.8 0.00 0.05 0.05 70 1014.7
20260502004357 8 344 3.2 4.8 0.00 0.05 0.05 68 1014.6
20260502003855 9 328 1.6 4.8 0.00 0.05 0.05 68 1014.4
20260502003352 9 329 4.8 6.4 0.00 0.05 0.05 67 1014.5
20260502002848 9 43 9.7 14.5 0.00 0.05 0.05 67 1014.3
20260502002345 10 310 6.4 9.7 0.00 0.05 0.05 66 1014.5
20260502001842 10 338 9.7 12.9 0.00 0.05 0.05 65 1014.5
20260502001340 10 321 8.0 14.5 0.00 0.05 0.05 64 1014.3
20260502000837 10 347 6.4 14.5 0.00 0.05 0.05 64 1014.1
20260502000335 10 303 8.0 14.5 0.00 0.05 0.05 65 1014.1
20260501235831 11 291 8.0 16.1 0.00 0.05 0.05 64 1013.7
20260501235327 11 304 12.9 24.1 0.00 0.05 0.05 62 1013.6
20260501234822 11 346 8.0 24.1 0.00 0.05 0.05 63 1013.7
20260501234320 11 330 8.0 20.9 0.00 0.05 0.05 63 1013.5
20260501233819 11 313 9.7 14.5 0.00 0.05 0.05 62 1013.3
20260501233315 11 6 4.8 9.7 0.00 0.05 0.05 63 1013.1
20260501232811 11 337 4.8 9.7 0.00 0.05 0.05 63 1013.1
20260501232308 11 288 6.4 9.7 0.00 0.05 0.05 62 1013.0
20260501231806 11 309 8.0 16.1 0.00 0.05 0.05 62 1013.2
20260501231304 12 321 8.0 11.3 0.00 0.05 0.05 63 1013.3
20260501230802 12 17 6.4 16.1 0.00 0.05 0.05 62 1012.9
20260501230300 12 323 6.4 14.5 0.00 0.05 0.05 63 1012.9
20260501225757 12 327 6.4 24.1 0.00 0.05 0.05 64 1013.1
20260501225255 12 332 6.4 20.9 0.00 0.05 0.05 64 1013.0
20260501224751 12 306 11.3 25.7 0.00 0.05 0.05 64 1012.8
20260501224248 12 324 3.2 6.4 0.00 0.05 0.05 69 1012.9
20260501223744 12 269 1.6 3.2 0.00 0.05 0.05 69 1012.8
20260501223241 12 355 8.0 11.3 0.00 0.05 0.05 67 1012.9
20260501222737 13 291 1.6 3.2 0.00 0.05 0.05 66 1012.8
20260501222234 13 351 4.8 9.7 0.00 0.05 0.05 66 1012.6
20260501221731 13 319 1.6 6.4 0.00 0.05 0.05 64 1012.6
20260501221228 13 335 4.8 9.7 0.00 0.05 0.05 66 1012.6
20260501220726 13 314 6.4 9.7 0.00 0.05 0.05 66 1012.5
20260501220223 13 346 9.7 12.9 0.00 0.05 0.05 66 1012.8
20260501215720 14 334 6.4 6.4 0.00 0.05 0.05 68 1012.7
20260501215215 13 286 3.2 4.8 0.00 0.05 0.05 73 1012.9
20260501214710 12 298 1.6 6.4 0.00 0.05 0.05 74 1012.6
20260501214207 12 298 1.6 4.8 0.00 0.05 0.05 75 1012.6
20260501213703 12 332 1.6 3.2 0.00 0.05 0.05 73 1012.7
20260501213159 12 140 0.0 3.2 0.00 0.05 0.05 74 1012.6
20260501212656 11 330 3.2 4.8 0.00 0.05 0.05 74 1012.5
20260501212153 11 348 0.0 3.2 0.00 0.05 0.05 76 1012.4
20260501211649 11 308 3.2 3.2 0.00 0.05 0.05 76 1012.5
20260501211147 11 289 0.0 1.6 0.00 0.05 0.05 77 1012.6
20260501210643 11 293 3.2 4.8 0.00 0.05 0.05 77 1012.5
20260501210140 11 356 1.6 3.2 0.00 0.05 0.05 78 1012.5
20260501205636 11 300 1.6 4.8 0.00 0.05 0.05 77 1012.3
20260501205134 11 333 3.2 6.4 0.00 0.05 0.05 78 1012.5
20260501204630 11 295 0.0 4.8 0.00 0.05 0.05 78 1012.5
20260501204126 11 347 4.8 14.5 0.00 0.05 0.05 76 1012.5
20260501203623 11 318 9.7 12.9 0.00 0.05 0.05 76 1012.6
20260501203121 11 310 3.2 4.8 0.00 0.05 0.05 76 1012.5
20260501202618 11 349 4.8 6.4 0.00 0.05 0.05 76 1012.6
20260501202114 11 7 4.8 6.4 0.00 0.05 0.05 74 1012.6
20260501201611 12 332 9.7 11.3 0.00 0.05 0.05 76 1012.5
20260501201108 12 275 6.4 9.7 0.00 0.05 0.05 75 1012.8
20260501200605 12 347 11.3 16.1 0.00 0.05 0.05 76 1012.5
20260501195600 12 317 9.7 16.1 0.00 0.05 0.05 74 1012.6
20260501195055 12 294 8.0 11.3 0.00 0.05 0.05 76 1012.7
20260501194551 13 312 9.7 14.5 0.00 0.05 0.05 75 1012.3
20260501194047 13 285 6.4 11.3 0.00 0.05 0.05 76 1012.4
20260501193544 13 324 6.4 6.4 0.00 0.05 0.05 76 1012.3
20260501193043 13 325 1.6 6.4 0.00 0.05 0.05 75 1012.4
20260501192539 13 327 1.6 6.4 0.00 0.05 0.05 76 1012.2
20260501192037 13 301 1.6 3.2 0.18 0.05 0.05 78 1012.2
20260501191534 12 313 0.0 4.8 0.18 0.05 0.05 78 1012.2
20260501191031 12 306 3.2 4.8 0.00 0.03 0.03 78 1012.3
20260501190526 12 12 6.4 6.4 0.00 0.03 0.03 78 1012.3
20260501190022 12 312 6.4 11.3 0.00 0.03 0.03 75 1012.2
20260501185519 12 321 4.8 9.7 0.00 0.03 0.03 73 1012.2
20260501185015 13 318 11.3 14.5 0.00 0.03 0.03 70 1012.0
20260501184512 14 326 6.4 11.3 0.00 0.03 0.03 64 1011.8
20260501184011 14 318 3.2 6.4 0.00 0.03 0.03 61 1011.6
20260501183509 14 343 9.7 12.9 0.00 0.03 0.03 61 1011.5
20260501183005 14 321 4.8 9.7 0.00 0.03 0.03 60 1011.3
20260501182502 15 311 6.4 12.9 0.00 0.03 0.03 56 1011.6
20260501181959 15 337 3.2 4.8 0.00 0.03 0.03 54 1011.4
20260501181456 15 310 1.6 4.8 0.00 0.03 0.03 55 1011.8
20260501180953 15 340 1.6 4.8 0.00 0.03 0.03 52 1011.4
20260501180450 16 275 1.6 6.4 0.00 0.03 0.03 51 1011.3
20260501175946 16 280 4.8 9.7 0.00 0.03 0.03 48 1011.2
20260501175443 16 240 3.2 6.4 0.00 0.03 0.03 48 1011.4
20260501174940 16 334 3.2 6.4 0.00 0.03 0.03 52 1011.6
20260501174438 16 227 8.0 22.5 0.00 0.03 0.03 47 1011.4
20260501173935 17 157 0.0 4.8 0.00 0.03 0.03 45 1011.4
20260501173433 16 221 0.0 3.2 0.00 0.03 0.03 52 1011.5
20260501172927 16 155 8.0 9.7 0.00 0.03 0.03 51 1011.8